Regional Weather Roundup
Issued by NWS Northern Indiana

Home | Current Version | Previous Version | Graphics & Text | Print | Product List | Glossary On
Versions: 1 2 3 4 5 6 7 8 9 10 11 12 13 14 15 16 17 18 19 20 21 22 23 24 25 26 27 28 29 30 31 32 33 34 35 36 37 38 39 40 41 42 43 44 45 46 47 48 49 50
000
ASUS43 KIWX 241900
RWRIWX

KIWX WEATHER ROUNDUP
NATIONAL WEATHER SERVICE NORTHERN INDIANA
300 PM EDT MON APR 24 2017

NOTE: "FAIR" INDICATES FEW OR NO CLOUDS BELOW 12,000 FEET WITH NO
SIGNIFICANT WEATHER AND/OR OBSTRUCTIONS TO VISIBILITY.

* THESE STATIONS ARE NOT UNDER NWS QUALITY CONTROL. THEY ALSO MAY NOT
  REPORT WEATHER SUCH AS PRECIPITATION OR FOG.

INZ001>027-242000-
NORTHERN INDIANA

CITY           SKY/WX    TMP DP  RH WIND       PRES   REMARKS
GARY*          PTSUNNY   66  32  28 CALM      29.93F
KNOX*          SUNNY    N/A N/A N/A E6        29.92F
SOUTH BEND     SUNNY     71  28  20 SE16      29.94F
GOSHEN         SUNNY     70  35  27 E12       29.93F
ANGOLA*        SUNNY     70  36  28 E17       29.96F
FORT WAYNE     MOSUNNY   71  35  26 E17G28    29.93F
PERU/GRISSOM   SUNNY     72  38  28 E15       29.90F

$$
INZ028>050-242000-
CENTRAL INDIANA

CITY           SKY/WX    TMP DP  RH WIND       PRES   REMARKS
KOKOMO*        SUNNY     71  38  29 E14G20    29.91F
MUNCIE*        SUNNY     75  32  20 NE17G23   29.89F
INDIANAPOLIS   MOSUNNY   75  34  22 E15G23    29.86F

$$
MIZ043>046-050>051-056>058-064>065-071>073-077>080-242000-
SOUTHWEST LOWER MICHIGAN

CITY           SKY/WX    TMP DP  RH WIND       PRES   REMARKS
BATTLE CREEK   SUNNY     70  30  22 SE10      29.97F
BENTON HARBOR  MOSUNNY   73  29  19 E9        29.93F
COLDWATER*     MOSUNNY   69  34  27 E14G20    29.96F
HILLSDALE*     SUNNY     68  36  30 E13G22    29.97F
HOLLAND        MOSUNNY   71  37  28 E15       29.95F
GRAND RAPIDS   PTSUNNY   70  36  28 SE14      29.97F
KALAMAZOO      SUNNY     73  20  13 E13G18    29.96F
STURGIS*       SUNNY     71  31  22 SE13G18   29.95F
THREE RIVERS*  FAIR      70  30  23 SE13G18   29.95F

$$
OHZ001>008-015>018-024>025-242000-
NORTHWEST OHIO

CITY           SKY/WX    TMP DP  RH WIND       PRES   REMARKS
DEFIANCE       SUNNY     68  36  30 E16G22    29.95F
FINDLAY        SUNNY     72  40  31 NE16G22   29.93F
TOLEDO EXPRESS SUNNY     63  35  35 NE22      29.98F
TOLEDO METCALF SUNNY     61  41  47 E13G21    30.00F
LIMA           SUNNY     73  31  21 NE13G18   29.92F

$$
AND FOR LAKE MICHIGAN COASTAL AND OPEN LAKE BUOY OBSERVATIONS

STATION/POSITION TEMP    WIND        PRES    VSBY  WAVE
                 AIR SEA DIR/SP/G                  HT/PER
                 (F)     (DEG/KT/KT) (MB)    (MI)  (FT/S)
CALUMET HARBOR    58     350/  7/ 10 1013.4F
MICHIGAN CITY     69     120/  9/ 13   N/A
BURNS HARBOR      52      CALM  /  5 1014.2F
SOUTH LAKE BUOY   45 42   50/  2/  2 1015.9          1/ 5
4 MI NW BRIDGMAN  64 52  120/  6/ 10 1013.7F         2/ 2

$$
&&




USA.gov is the U.S. government's official web portal to all federal, state and local government web resources and services.